MPEC 2004-K10 : 2004 KB

The following Minor Planet Electronic Circular may be linked-to from your own Web pages, but must not otherwise be redistributed electronically.


Read MPEC 2004-K09 Read MPEC 2004-K11


M.P.E.C. 2004-K10                                Issued 2004 May 17, 15:41 UT

     The Minor Planet Electronic Circulars contain information on unusual
         minor planets and routine data on comets.  They are published
   on behalf of Commission 20 of the International Astronomical Union by the
          Minor Planet Center, Smithsonian Astrophysical Observatory,
                          Cambridge, MA 02138, U.S.A.

         Supported in part by the Steven and Michele Kirsch Foundation
             Prepared using the Tamkin Foundation Computer Network

                              MPC@CFA.HARVARD.EDU
          URL http://cfa-www.harvard.edu/iau/mpc.html  ISSN 1523-6714

                                    2004 KB

Observations:
     K04K00B* C2004 05 16.26450 14 06 02.41 -12 19 19.2          19.1   EK010704
     K04K00B  C2004 05 16.27423 14 06 02.26 -12 18 37.6          19.4   EK010704
     K04K00B  C2004 05 16.28382 14 06 02.23 -12 17 56.6          19.6   EK010704
     K04K00B  C2004 05 16.29354 14 06 02.09 -12 17 14.7          19.4   EK010704
     K04K00B  C2004 05 16.30316 14 06 01.96 -12 16 34.3          20.1   EK010704
     K04K00B  C2004 05 16.95882 14 06 03.73 -11 30 44.4          18.9 R EK010J95
     K04K00B  C2004 05 16.96679 14 06 03.65 -11 30 10.7          19.9 R EK010J95
     K04K00B  C2004 05 16.97484 14 06 03.71 -11 29 38.5          19.7 R EK010J95
     K04K00B  C2004 05 17.21684 14 06 04.99 -11 12 57.9          19.9 R EK010926
     K04K00B  C2004 05 17.21782 14 06 04.97 -11 12 53.3          20.5 R EK010926
     K04K00B  C2004 05 17.21880 14 06 04.93 -11 12 49.2          20.3 R EK010926
     K04K00B  C2004 05 17.31060 14 06 04.23 -11 06 35.2          19.5 R EK010854
     K04K00B  C2004 05 17.31713 14 06 04.14 -11 06 08.8          19.4 R EK010854
     K04K00B  C2004 05 17.32366 14 06 04.18 -11 05 41.9          19.5 R EK010854

Observer details:
704 Lincoln Laboratory ETS, New Mexico.  Observers M. Blythe, F. Shelly,
    M. Bezpalko, R. Huber, L. Manguso, D. Torres, R. Kracke, M. McCleary,
    H. Stange, A. Milner.  Measurers J. Stuart, R. Sayer, J. Evans, J. Kommers.
    1.0-m f/2.15 reflector + CCD.
854 Sabino Canyon Observatory, Tucson.  Observer J. E. McGaha.  0.356-m f/10.0
    Schmidt-Cassegrain + CCD.
926 Tenagra II Observatory.  Observers P. R. Holvorcem, M. Schwartz.  0.81-m
    f/7 Ritchey-Chretien + CCD.
J95 Great Shefford.  Observer P. Birtwhistle.  0.30-m f/6.3 Schmidt-Cassegrain
    + CCD.

Orbital elements:
2004 KB                                                              PHA 0.007D
Epoch 2004 May 15.0 TT = JDT 2453140.5                  MPC
M  82.56233              (2000.0)            P               Q
n   0.73689484     Peri.  245.65520     -0.39527127     -0.87226114
a   1.2139451      Node   230.81995     +0.91810165     -0.36520725
e   0.2760190      Incl.   21.80709     +0.02915463     -0.32524479
P   1.34           H   21.4           G   0.15
From 14 observations 2004 May 16-17.

Ephemeris:
2004 KB                  a,e,i = 1.21, 0.28, 22                  q = 0.8789
Date    TT    R. A. (2000) Decl.     Delta      r     Elong.  Phase     V
2004 05 15    14 06.06   -13 51.9    0.264    1.262   159.7    16.2    19.9
2004 05 25    14 07.67   -03 57.4    0.332    1.302   146.1    25.7    20.8
2004 06 04    14 12.67   +01 42.0    0.414    1.339   134.9    32.5    21.5
2004 06 14    14 20.24   +04 40.6    0.505    1.374   125.9    36.8    22.1
2004 06 24    14 29.89   +05 59.7    0.602    1.406   118.3    39.5    22.6

Timothy B. Spahr             (C) Copyright 2004 MPC           M.P.E.C. 2004-K10

Read MPEC 2004-K09 Read MPEC 2004-K11


Our Web policy. Index to the CBAT/MPC/ICQ pages.

MPC